Regional Weather Roundup
Issued by NWS Albany, NY

Home | Current Version | Previous Version | Graphics & Text | Print | Product List | Glossary Off
Versions: 1 2 3 4 5 6 7 8 9 10 11 12 13 14 15 16 17 18 19 20 21 22 23 24 25 26 27 28 29 30 31 32 33 34 35 36 37 38 39 40 41 42 43 44 45 46 47 48 49 50

262
ASUS41 KALY 212010
RWRALY

NEW YORK STATE HOURLY WEATHER ROUNDUP
NATIONAL WEATHER SERVICE ALBANY NY
300 PM EST SUN JAN 21 2018

NOTE: "FAIR" INDICATES FEW OR NO CLOUDS BELOW 12,000 FEET WITH NO
SIGNIFICANT WEATHER AND/OR NO OBSTRUCTIONS TO VISIBILITY.

NYZ032-033-038>043-046>054-057>066-NYZ062>081-082-084-212100-
EAST


CITY           SKY/WX    TMP DP  RH WIND       PRES   REMARKS
ALBANY         CLOUDY    41  29  62 NW3       30.14F
GLENS FALLS    FAIR      40  31  70 S10       30.12R WCI  33
POUGHKEEPSIE   FAIR      47  28  47 CALM      30.12F
NEWBURGH       MOSUNNY   46  32  57 CALM      30.12F
MONTGOMERY     FAIR      46  31  55 S3        30.10F
WHITE PLAINS   FAIR      46  29  51 NW3       30.11F
ISLIP          CLOUDY    50  30  46 NW5       30.13S
NEW YORK CITY  PTSUNNY   52  29  41 NW3       30.13S
CENTRAL PARK   FAIR      50  29  44 VRB3      30.15S
$$

NYZ005>009-017-018-044>046-055-056-212100-
CENTRAL


CITY           SKY/WX    TMP DP  RH WIND       PRES   REMARKS
FULTON         CLOUDY    42  31  64 SE5       30.10S
SYRACUSE       CLOUDY    40  31  70 E5        30.10S
ROME           PTSUNNY   40  30  67 CALM      30.13S
ELMIRA         CLOUDY    40  34  79 CALM      30.08F
BINGHAMTON     CLOUDY    37  31  78 SW5       30.07F WCI  33
MONTICELLO     FAIR      43  29  57 VRB6      30.11S
$$

NYZ026>034-041>043-087-212100-
NORTH


CITY           SKY/WX    TMP DP  RH WIND       PRES   REMARKS
WATERTOWN      PTSUNNY   41  32  70 SW6       30.10S
FORT DRUM      NOT AVBL
OGDENSBURG     FAIR      39  33  77 CALM      30.12R
MASSENA        PTSUNNY   35  27  72 NE6       30.14R WCI  30
SARANAC LAKE   FAIR      36  29  75 SW7       30.04R WCI  30
PLATTSBURGH    FAIR      35  24  64 N7        30.13R WCI  29
$$

NYZ001>004-010>016-019>021-085-212100-
WEST


CITY           SKY/WX    TMP DP  RH WIND       PRES   REMARKS
NIAGARA FALLS  CLOUDY    41  36  82 CALM      30.05S HAZE
BUFFALO        CLOUDY    41  37  86 CALM      30.05F
DUNKIRK        CLOUDY    44  35  70 N6        30.04F
JAMESTOWN      CLOUDY    39  37  92 S6        30.02F WCI  35
WELLSVILLE     CLOUDY    40  37  89 SW5       30.04F FOG
ROCHESTER      DRIZZLE   43  34  70 CALM      30.08S
PENN YAN       CLOUDY    41  32  70 S6        30.08S
$$

             KEY
       WCI = WIND CHILL INDEX
       VSB = VISIBILITY
       HX  = HEAT INDEX
$$




USA.gov is the U.S. government's official web portal to all federal, state and local government web resources and services.